This is the latest recevied weather packets stored in our database for station/object 9W2EXL-13. If no packets are shown the sender has not sent any weather packets the latest 10 day(s).
| Time | Temp. | Humidity | Pressure | Rain* | Wind** | Luminosity | Snow |
|---|---|---|---|---|---|---|---|
| 1788215788 | 30° C | 100% | 1011.1 hPa | - | - | - | - |
| 1788213988 | 30° C | 100% | 1011.2 hPa | - | - | - | - |
| 1788213087 | 30° C | 100% | 1011.3 hPa | - | - | - | - |
| 1788212187 | 30° C | 100% | 1010.9 hPa | - | - | - | - |
| 1788210387 | 30.56° C | 100% | 1010.6 hPa | - | - | - | - |
| 1788208587 | 30.56° C | 100% | 1010.5 hPa | - | - | - | - |
| 1788207687 | 30.56° C | 100% | 1010.5 hPa | - | - | - | - |
| 1788206787 | 30.56° C | 100% | 1010.4 hPa | - | - | - | - |
| 1788205887 | 30.56° C | 100% | 1010.8 hPa | - | - | - | - |
| 1788204986 | 30.56° C | 100% | 1010.9 hPa | - | - | - | - |
| 1788204086 | 30.56° C | 100% | 1011 hPa | - | - | - | - |
| 1788203186 | 31.11° C | 100% | 1011.2 hPa | - | - | - | - |
| 1788201386 | 31.11° C | 100% | 1011.5 hPa | - | - | - | - |
| 1788198694 | 31.11° C | 100% | 1012.3 hPa | - | - | - | - |
| 1788197800 | 31.11° C | 100% | 1012.2 hPa | - | - | - | - |
| 1788194185 | 31.11° C | 99% | 1012.3 hPa | - | - | - | - |
| 1788192385 | 31.67° C | 98% | 1012.2 hPa | - | - | - | - |
| 1788191485 | 31.67° C | 97% | 1012.3 hPa | - | - | - | - |
| 1788188785 | 31.67° C | 96% | 1012.4 hPa | - | - | - | - |
| 1788187884 | 31.67° C | 95% | 1012.3 hPa | - | - | - | - |
| 1788186990 | 32.22° C | 95% | 1012.1 hPa | - | - | - | - |
| 1788186084 | 32.22° C | 94% | 1011.9 hPa | - | - | - | - |
| 1788184284 | 32.22° C | 92% | 1011.6 hPa | - | - | - | - |
| 1788183384 | 32.78° C | 91% | 1011.3 hPa | - | - | - | - |
| 1788174383 | 35° C | 75% | 1009.3 hPa | - | - | - | - |
* Rain since midnight (hover to see other rain measurements)
** Current wind speed in m/s (hover to see current wind gust speed)